Flag for Tajikistan Weather past 2 weeks in Dushanbe, Tajikistan

Now
97 °F

Sunny.


Feels Like: 92 °F
Forecast: 67 / 97 °F
Wind: 6 mph from West

Location: Dushanbe Airport

Current Time: Aug 21, 2014 at 4:00:55 PM

Latest Report: Aug 21, 2014 at 3:30 PM


Visibility: N/A

Pressure: 29.71 "Hg

Humidity: 11%

Dew point: 34 °F

Location of DushanbeLocation

Historic Weather in Dushanbe — Graph

°F

Dushanbe temperature yesterday

Maximum temperature yesterday: 99 °F (at 3:00 PM)
Minimum temperature yesterday: 63 °F (at 4:30 AM)
Average temperature yesterday: 80 °F

Past Weeks' High & Low Weather Summary

 TemperatureHumidityPressure
High99 °F (Aug 6, 5:00 PM)56% (Aug 8, 6:30 AM)29.95 "Hg (Aug 8, 6:30 AM)
Low61 °F (Aug 18, 6:00 AM)5% (Aug 7, 3:00 PM)29.59 "Hg (Aug 7, 3:30 PM)
Average81 °F27%29.77 "Hg
* Reported Aug 6 2:00 PM — Aug 21 2:30 PM, Dushanbe, Weather by CustomWeather, © 2014

Note: Actual official high and low records may vary slightly from our data, if they occured in-between our weather recording intervals... More about our weather records

Advertising

Dushanbe weather history for previous 24 hours

 ConditionsComfort  
Time TempWeatherWind HumidityBarometerVisibility
2:30 PM
Aug 21
97 °FSunny.6 mph11%29.74 "HgN/A
2:00 PM97 °FSunny.3 mph12%29.74 "HgN/A
1:30 PM95 °FSunny.3 mph12%29.77 "HgN/A
1:00 PM93 °FSunny.3 mph10%29.77 "HgN/A
12:30 PM95 °FSunny.3 mph11%29.77 "HgN/A
12:00 PM93 °FSunny.3 mph16%29.80 "HgN/A
11:30 AM91 °FSunny.1 mph18%29.80 "HgN/A
11:00 AM88 °FSunny.3 mph18%29.80 "HgN/A
10:30 AM86 °FSunny.3 mph27%29.83 "Hg6 mi
10:00 AM84 °FSunny.1 mph25%29.83 "Hg6 mi
9:30 AM81 °FSunny.1 mph30%29.83 "Hg5 mi
9:00 AM79 °FSunny.1 mph30%29.83 "Hg5 mi
8:30 AM77 °FSunny.1 mph30%29.83 "HgN/A
8:00 AM77 °FSunny.1 mph32%29.83 "Hg4 mi
7:30 AM73 °FSunny.1 mph33%29.83 "Hg5 mi
7:00 AM66 °FSunny.1 mph49%29.83 "Hg6 mi
6:30 AM68 °FSunny.1 mph43%29.83 "Hg6 mi
6:00 AM66 °FSunny.1 mph46%29.80 "HgN/A
5:30 AM64 °FClear.No wind49%29.80 "HgN/A
4:30 AM66 °FClear.No wind40%29.80 "HgN/A
4:00 AM66 °FClear.No wind43%29.80 "Hg6 mi
3:30 AM68 °FClear.1 mph38%29.80 "Hg6 mi
3:00 AM68 °FClear.No wind40%29.80 "Hg4 mi
2:30 AM68 °FClear.No wind38%29.80 "HgN/A
1:30 AM68 °FClear.3 mph40%29.80 "HgN/A
1:00 AM72 °FClear.No wind36%29.80 "Hg6 mi
12:30 AM72 °FClear.1 mph36%29.80 "HgN/A
12:00 AM72 °FClear.1 mph36%29.80 "Hg5 mi
11:30 PM
Aug 20
72 °FClear.1 mph36%29.80 "Hg4 mi
11:00 PM70 °FClear.3 mph40%29.80 "Hg4 mi
10:30 PM73 °FClear.1 mph33%29.80 "Hg4 mi
10:00 PM75 °FClear.1 mph31%29.80 "Hg6 mi
9:30 PM79 °FClear.3 mph28%29.83 "Hg6 mi
9:00 PM79 °FClear.1 mph28%29.80 "Hg5 mi
8:30 PM82 °FClear.1 mph25%29.80 "Hg5 mi
8:00 PM84 °FClear.3 mph23%29.80 "HgN/A
7:30 PM84 °FClear.1 mph22%29.80 "HgN/A
7:00 PM88 °FSunny.8 mph17%29.77 "HgN/A
6:30 PM90 °FSunny.8 mph18%29.77 "HgN/A
6:00 PM93 °FSunny.8 mph17%29.77 "HgN/A
5:30 PM97 °FSunny.1 mph9%29.77 "HgN/A
5:00 PM97 °FSunny.1 mph9%29.77 "HgN/A
4:30 PM97 °FSunny.1 mph8%29.77 "HgN/A
4:00 PM99 °FSunny.1 mph9%29.80 "HgN/A
Weather by CustomWeather, © 2014

See weather overviewHow to use our weather pages